sat.trackr.live / text

‹ back to catalog

STARLINK-33901

NORAD 63878 · 2025-094Q

PAYLOAD ACTIVE UNKNOWN

§ Identity

Operator
Country
US
Launch date
2025-05-10
Launch site
AFWTR
Launch vehicle
Mass (kg)
RCS (m²)

Purposes: comms

External: N2YO · Heavens-Above · Gunter

§ Orbital elements

Epoch: 2026-09-20T21:52:39.700704Z

Period
94.14 min
Inclination
69.9996°
Eccentricity
0.0002966
Mean motion
15.29591764 rev/d
Perigee alt
475.0 km
Apogee alt
479.1 km
Semi-major
6,855.2 km
B*
1.3687e-4
RAAN
99.9172°
Arg perigee
261.8124°
Mean anomaly
98.2715°
Rev number
7,650

§ Raw data

STARLINK-339011 63878U 25094Q   26263.91157061  .00003810  00000+0  13687-3 0  99902 63878  69.9996  99.9172 0002966 261.8124  98.2715 15.29591764 76505

JSON: /api/v1/satellites/63878 · /tle

For live sub-satellite position, see the globe view (requires WebGL).

§ Visibility from observer

Set your observer location to see the next 7 days of passes ≥ 10°. The values pass through the URL so the page stays shareable.

No JS? Fill the form by hand. The geolocation button needs JavaScript.